CW5212 Weather Reports


Display with metric or nautical units.
time (UTC)temp
F
wind
direction
speed
MPH
gust
MPH
rain 1hr
in
rain 24hr
in
rain mn
in
humidity
%
barometer
mb
20260906143056 63 101 7.0 11.0 0.00 0.00 0.00 27 941.6
20260906141543 62 120 8.0 12.0 0.00 0.00 0.00 28 941.6
20260906140044 61 100 8.0 12.0 0.00 0.00 0.00 28 941.7
20260906134511 60 115 8.0 11.0 0.00 0.00 0.00 28 941.7
20260906133117 59 90 7.0 11.0 0.00 0.00 0.00 29 941.6
20260906133004 59 122 8.0 11.0 0.00 0.00 0.00 29 941.5
20260906131546 59 107 8.0 13.0 0.00 0.00 0.00 29 941.5
20260906130028 59 121 9.0 13.0 0.00 0.00 0.00 28 941.4
20260906124507 59 121 7.0 12.0 0.00 0.00 0.00 28 941.3
20260906123051 60 130 9.0 14.0 0.00 0.00 0.00 27 941.4
20260906121536 61 128 9.0 13.0 0.00 0.00 0.00 28 941.4
20260906120023 61 136 7.0 15.0 0.00 0.00 0.00 28 941.5
20260906114514 60 135 8.0 12.0 0.00 0.00 0.00 28 941.5
20260906113047 60 117 7.0 16.0 0.00 0.00 0.00 27 941.6
20260906111538 61 142 8.0 14.0 0.00 0.00 0.00 28 941.5
20260906110018 62 122 9.0 15.0 0.00 0.00 0.00 27 941.5
20260906104600 62 146 9.0 14.0 0.00 0.00 0.00 27 941.5
20260906104502 62 151 9.0 14.0 0.00 0.00 0.00 27 941.4
20260906103046 61 128 7.0 14.0 0.00 0.00 0.00 27 941.3
20260906101532 60 118 6.0 9.0 0.00 0.00 0.00 28 941.3
20260906100015 57 160 1.0 4.0 0.00 0.00 0.00 40 941.5
20260906094609 55 182 3.0 7.0 0.00 0.00 0.00 47 941.3
20260906094502 55 182 3.0 7.0 0.00 0.00 0.00 47 941.3
20260906093054 57 184 4.0 6.0 0.00 0.00 0.00 41 941.4
20260906091517 62 209 6.0 10.0 0.00 0.00 0.00 28 941.4
20260906090135 63 114 7.0 13.0 0.00 0.00 0.00 26 941.3
20260906084550 64 122 7.0 11.0 0.00 0.00 0.00 24 941.3
20260906083035 65 109 5.0 14.0 0.00 0.00 0.00 23 941.4
20260906081512 65 145 6.0 9.0 0.00 0.00 0.00 24 941.5
20260906080105 65 136 5.0 9.0 0.00 0.00 0.00 23 941.6
20260906074549 66 106 6.0 12.0 0.00 0.00 0.00 23 941.7
20260906073024 66 122 5.0 9.0 0.00 0.00 0.00 22 941.6
20260906071559 66 97 5.0 9.0 0.00 0.00 0.00 22 941.6
20260906071501 66 94 6.0 9.0 0.00 0.00 0.00 22 941.6
20260906070045 67 96 7.0 10.0 0.00 0.00 0.00 21 941.5
20260906064534 66 150 4.0 9.0 0.00 0.00 0.00 21 941.5
20260906063013 67 111 6.0 10.0 0.00 0.00 0.00 20 941.6
20260906061601 67 78 6.0 10.0 0.00 0.00 0.00 21 941.6
20260906060032 66 107 4.0 7.0 0.00 0.00 0.00 21 941.8
20260906054509 66 102 4.0 7.0 0.00 0.00 0.00 21 941.8
20260906053106 66 69 4.0 6.0 0.00 0.00 0.00 21 941.9
20260906051537 66 92 6.0 10.0 0.00 0.00 0.00 21 942.1
20260906050018 66 117 5.0 8.0 0.00 0.00 0.00 21 942.3
20260906044604 67 117 6.0 10.0 0.00 0.00 0.00 21 942.4
20260906043043 67 90 6.0 10.0 0.00 0.00 0.00 21 942.5
20260906041537 67 109 7.0 9.0 0.00 0.00 0.00 21 942.6
20260906040012 67 110 6.0 10.0 0.00 0.00 0.00 21 942.5
20260906034554 66 103 4.0 8.0 0.00 0.00 0.00 21 942.6
20260906033044 68 90 6.0 8.0 0.00 0.00 0.00 19 942.6
20260906031522 69 80 5.0 7.0 0.00 0.00 0.00 19 942.8
20260906030100 69 76 3.0 6.0 0.00 0.00 0.00 19 942.8
20260906024600 69 158 2.0 5.0 0.00 0.00 0.00 18 942.8
20260906023026 69 153 1.0 3.0 0.00 0.00 0.00 19 942.6
20260906021506 69 221 3.0 5.0 0.00 0.00 0.00 19 942.5
20260906020047 70 209 4.0 7.0 0.00 0.00 0.00 19 942.6
20260906014538 71 197 6.0 10.0 0.00 0.00 0.00 17 942.6
20260906013103 73 170 7.0 11.0 0.00 0.00 0.00 16 942.7
20260906013002 73 184 6.0 12.0 0.00 0.00 0.00 17 942.7
20260906011551 74 223 5.0 13.0 0.00 0.00 0.00 17 942.8
20260906010035 75 189 6.0 15.0 0.00 0.00 0.00 16 942.8
20260906004550 75 219 5.0 13.0 0.00 0.00 0.00 16 942.7
20260906003030 75 168 9.0 15.0 0.00 0.00 0.00 16 942.7
20260906001510 76 189 7.0 12.0 0.00 0.00 0.00 15 942.6
20260906000044 77 172 8.0 14.0 0.00 0.00 0.00 15 942.5
20260905234526 77 196 8.0 23.0 0.00 0.00 0.00 16 942.5
20260905233058 77 183 7.0 16.0 0.00 0.00 0.00 16 942.4
20260905231543 77 242 11.0 22.0 0.00 0.00 0.00 15 942.5
20260905230108 78 186 11.0 17.0 0.00 0.00 0.00 15 942.6
20260905224542 77 117 12.0 19.0 0.00 0.00 0.00 15 942.5
20260905223024 77 209 10.0 17.0 0.00 0.00 0.00 15 942.6
20260905221516 78 253 11.0 24.0 0.00 0.00 0.00 19 942.7
20260905220023 77 197 12.0 20.0 0.00 0.00 0.00 16 942.8
20260905214515 78 205 13.0 22.0 0.00 0.00 0.00 16 942.8
20260905213106 77 153 8.0 19.0 0.00 0.00 0.00 17 943.0
20260905211548 77 205 7.0 14.0 0.00 0.00 0.00 18 943.0
20260905210025 76 162 12.0 19.0 0.00 0.00 0.00 19 943.1
20260905204610 76 243 8.0 17.0 0.00 0.00 0.00 21 943.1
20260905204511 76 196 8.0 17.0 0.00 0.00 0.00 20 943.0
20260905203050 75 190 6.0 12.0 0.00 0.00 0.00 25 943.2
20260905201523 76 114 11.0 18.0 0.00 0.00 0.00 23 943.5
20260905200048 74 178 8.0 13.0 0.00 0.00 0.00 24 943.8
20260905194626 74 155 7.0 12.0 0.00 0.00 0.00 24 944.0
20260905193004 73 90 6.0 16.0 0.00 0.00 0.00 26 944.0
20260905191542 72 283 8.0 11.0 0.00 0.00 0.00 27 944.1
20260905190036 71 186 3.0 11.0 0.00 0.00 0.00 30 944.4
20260905184532 70 248 2.0 10.0 0.00 0.00 0.00 33 944.5
20260905183042 70 216 3.0 8.0 0.00 0.00 0.00 34 944.8
20260905181535 71 128 5.0 11.0 0.00 0.00 0.00 29 944.9
20260905180027 70 123 5.0 12.0 0.00 0.00 0.00 31 945.1
20260905174515 67 100 3.0 13.0 0.00 0.00 0.00 34 945.2
20260905173054 64 199 2.0 7.0 0.00 0.00 0.00 41 945.2
20260905171536 62 248 4.0 8.0 0.00 0.00 0.00 46 945.3
20260905170009 60 227 2.0 7.0 0.00 0.00 0.00 47 945.2
20260905164536 59 213 5.0 10.0 0.00 0.00 0.00 48 945.2
20260905163014 58 257 4.0 7.0 0.00 0.00 0.00 49 945.2
20260905161550 57 244 3.0 5.0 0.00 0.00 0.00 48 945.0
20260905160008 56 223 2.0 6.0 0.00 0.00 0.00 51 945.0
20260905154546 55 218 3.0 9.0 0.00 0.00 0.00 54 944.9
20260905153024 54 223 3.0 8.0 0.00 0.00 0.00 55 945.0
20260905151600 53 260 3.0 7.0 0.00 0.00 0.00 57 945.1
20260905151502 53 252 4.0 7.0 0.00 0.00 0.00 57 945.1
20260905150046 52 236 4.0 7.0 0.00 0.00 0.00 59 944.9
20260905144522 51 250 4.0 6.0 0.00 0.00 0.00 61 945.0